Year,Month,Day,Hour,Minute,Value (Times are PST for temperature in C)
2011,03,24,00,00,11.20
2011,03,24,00,01,11.20
2011,03,24,00,02,11.20
2011,03,24,00,03,11.10
2011,03,24,00,04,11.10
2011,03,24,00,05,11.10
2011,03,24,00,06,11.10
2011,03,24,00,07,11.20
2011,03,24,00,08,11.20
2011,03,24,00,09,11.20
2011,03,24,00,10,11.20
2011,03,24,00,11,11.20
2011,03,24,00,12,11.20
2011,03,24,00,13,11.20
2011,03,24,00,14,11.20
2011,03,24,00,15,11.20
2011,03,24,00,16,11.20
2011,03,24,00,17,11.20
2011,03,24,00,18,11.20
2011,03,24,00,19,11.20
2011,03,24,00,20,11.20
2011,03,24,00,21,11.20
2011,03,24,00,22,11.20
2011,03,24,00,23,11.10
2011,03,24,00,24,11.10
2011,03,24,00,25,11.10
2011,03,24,00,26,11.10
2011,03,24,00,27,11.10
2011,03,24,00,28,11.10
2011,03,24,00,29,11.00
2011,03,24,00,30,10.90
2011,03,24,00,31,10.80
2011,03,24,00,32,10.80
2011,03,24,00,33,10.70
2011,03,24,00,34,10.60
2011,03,24,00,35,10.60
2011,03,24,00,36,10.60
2011,03,24,00,37,10.70
2011,03,24,00,38,10.70
2011,03,24,00,39,10.70
2011,03,24,00,40,10.80
2011,03,24,00,41,10.80
2011,03,24,00,42,10.90
2011,03,24,00,43,10.90
2011,03,24,00,44,10.90
2011,03,24,00,45,10.80
2011,03,24,00,46,10.70
2011,03,24,00,47,10.60
2011,03,24,00,48,10.60
2011,03,24,00,49,10.60
2011,03,24,00,50,10.60
2011,03,24,00,51,10.60
2011,03,24,00,52,10.60
2011,03,24,00,53,10.60
2011,03,24,00,54,10.60
2011,03,24,00,55,10.60
2011,03,24,00,56,10.70
2011,03,24,00,57,10.90
2011,03,24,00,58,10.90
2011,03,24,00,59,11.00
2011,03,24,01,00,11.10
2011,03,24,01,01,11.10
2011,03,24,01,02,11.10
2011,03,24,01,03,11.10
2011,03,24,01,04,11.10
2011,03,24,01,05,11.20
2011,03,24,01,06,11.20
2011,03,24,01,07,11.20
2011,03,24,01,08,11.20
2011,03,24,01,09,11.20
2011,03,24,01,10,11.20
2011,03,24,01,11,11.20
2011,03,24,01,12,11.10
2011,03,24,01,13,11.10
2011,03,24,01,14,11.10
2011,03,24,01,15,11.10
2011,03,24,01,16,11.00
2011,03,24,01,17,10.90
2011,03,24,01,18,10.90
2011,03,24,01,19,10.90
2011,03,24,01,20,10.80
2011,03,24,01,21,10.80
2011,03,24,01,22,10.70
2011,03,24,01,23,10.60
2011,03,24,01,24,10.60
2011,03,24,01,25,10.60
2011,03,24,01,26,10.60
2011,03,24,01,27,10.60
2011,03,24,01,28,10.40
2011,03,24,01,29,10.40
2011,03,24,01,30,10.40
2011,03,24,01,31,10.40
2011,03,24,01,32,10.30
2011,03,24,01,33,10.30
2011,03,24,01,34,10.30
2011,03,24,01,35,10.30
2011,03,24,01,36,10.30
2011,03,24,01,37,10.20
2011,03,24,01,38,10.20
2011,03,24,01,39,10.20
2011,03,24,01,40,10.30
2011,03,24,01,41,10.30
2011,03,24,01,42,10.30
2011,03,24,01,43,10.30
2011,03,24,01,44,10.30
2011,03,24,01,45,10.30
2011,03,24,01,46,10.30
2011,03,24,01,47,10.30
2011,03,24,01,48,10.30
2011,03,24,01,49,10.30
2011,03,24,01,50,10.30
2011,03,24,01,51,10.30
2011,03,24,01,52,10.30
2011,03,24,01,53,10.30
2011,03,24,01,54,10.30
2011,03,24,01,55,10.20
2011,03,24,01,56,10.20
2011,03,24,01,57,10.20
2011,03,24,01,58,10.10
2011,03,24,01,59,10.10
2011,03,24,02,00,10.10
2011,03,24,02,01,10.10
2011,03,24,02,02,10.10
2011,03,24,02,03,10.10
2011,03,24,02,04,9.90
2011,03,24,02,05,9.90
2011,03,24,02,06,9.90
2011,03,24,02,07,9.90
2011,03,24,02,08,9.80
2011,03,24,02,09,9.80
2011,03,24,02,10,9.80
2011,03,24,02,11,9.70
2011,03,24,02,12,9.70
2011,03,24,02,13,9.70
2011,03,24,02,14,9.70
2011,03,24,02,15,9.70
2011,03,24,02,16,9.70
2011,03,24,02,17,9.60
2011,03,24,02,18,9.60
2011,03,24,02,19,9.60
2011,03,24,02,20,9.60
2011,03,24,02,21,9.60
2011,03,24,02,22,9.50
2011,03,24,02,23,9.50
2011,03,24,02,24,9.50
2011,03,24,02,25,9.50
2011,03,24,02,26,9.40
2011,03,24,02,27,9.40
2011,03,24,02,28,9.40
2011,03,24,02,29,9.40
2011,03,24,02,30,9.30
2011,03,24,02,31,9.30
2011,03,24,02,32,9.30
2011,03,24,02,33,9.30
2011,03,24,02,34,9.30
2011,03,24,02,35,9.30
2011,03,24,02,36,9.30
2011,03,24,02,37,9.30
2011,03,24,02,38,9.30
2011,03,24,02,39,9.30
2011,03,24,02,40,9.30
2011,03,24,02,41,9.20
2011,03,24,02,42,9.30
2011,03,24,02,43,9.30
2011,03,24,02,44,9.30
2011,03,24,02,45,9.30
2011,03,24,02,46,9.30
2011,03,24,02,47,9.30
2011,03,24,02,48,9.40
2011,03,24,02,49,9.40
2011,03,24,02,50,9.40
2011,03,24,02,51,9.40
2011,03,24,02,52,9.40
2011,03,24,02,53,9.40
2011,03,24,02,54,9.40
2011,03,24,02,55,9.40
2011,03,24,02,56,9.40
2011,03,24,02,57,9.40
2011,03,24,02,58,9.40
2011,03,24,02,59,9.40
2011,03,24,03,00,9.50
2011,03,24,03,01,9.50
2011,03,24,03,02,9.50
2011,03,24,03,03,9.40
2011,03,24,03,04,9.40
2011,03,24,03,05,9.40
2011,03,24,03,06,9.40
2011,03,24,03,07,9.40
2011,03,24,03,08,9.30
2011,03,24,03,09,9.30
2011,03,24,03,10,9.30
2011,03,24,03,11,9.30
2011,03,24,03,12,9.30
2011,03,24,03,13,9.30
2011,03,24,03,14,9.30
2011,03,24,03,15,9.30
2011,03,24,03,16,9.30
2011,03,24,03,17,9.20
2011,03,24,03,18,9.20
2011,03,24,03,19,9.20
2011,03,24,03,20,9.20
2011,03,24,03,21,9.20
2011,03,24,03,22,9.20
2011,03,24,03,23,9.20
2011,03,24,03,24,9.10
2011,03,24,03,25,9.10
2011,03,24,03,26,9.10
2011,03,24,03,27,9.00
2011,03,24,03,28,9.00
2011,03,24,03,29,9.00
2011,03,24,03,30,8.90
2011,03,24,03,31,8.90
2011,03,24,03,32,8.90
2011,03,24,03,33,8.90
2011,03,24,03,34,8.90
2011,03,24,03,35,8.90
2011,03,24,03,36,8.90
2011,03,24,03,37,8.80
2011,03,24,03,38,8.80
2011,03,24,03,39,8.80
2011,03,24,03,40,8.80
2011,03,24,03,41,8.70
2011,03,24,03,42,8.70
2011,03,24,03,43,8.70
2011,03,24,03,44,8.70
2011,03,24,03,45,8.70
2011,03,24,03,46,8.80
2011,03,24,03,47,8.80
2011,03,24,03,48,8.80
2011,03,24,03,49,8.80
2011,03,24,03,50,8.80
2011,03,24,03,51,8.80
2011,03,24,03,52,8.90
2011,03,24,03,53,8.80
2011,03,24,03,54,8.80
2011,03,24,03,55,8.90
2011,03,24,03,56,8.90
2011,03,24,03,57,8.90
2011,03,24,03,58,8.90
2011,03,24,03,59,8.90
2011,03,24,04,00,8.90
2011,03,24,04,01,8.90
2011,03,24,04,02,8.90
2011,03,24,04,03,8.90
2011,03,24,04,04,8.90
2011,03,24,04,05,8.90
2011,03,24,04,06,8.90
2011,03,24,04,07,8.90
2011,03,24,04,08,8.90
2011,03,24,04,09,9.00
2011,03,24,04,10,9.00
2011,03,24,04,11,9.10
2011,03,24,04,12,9.10
2011,03,24,04,13,9.10
2011,03,24,04,14,9.10
2011,03,24,04,15,9.20
2011,03,24,04,16,9.20
2011,03,24,04,17,9.20
2011,03,24,04,18,9.20
2011,03,24,04,19,9.20
2011,03,24,04,20,9.20
2011,03,24,04,21,9.20
2011,03,24,04,22,9.20
2011,03,24,04,23,9.20
2011,03,24,04,24,9.20
2011,03,24,04,25,9.20
2011,03,24,04,26,9.20
2011,03,24,04,27,9.20
2011,03,24,04,28,9.10
2011,03,24,04,29,9.10
2011,03,24,04,30,9.10
2011,03,24,04,31,9.10
2011,03,24,04,32,9.10
2011,03,24,04,33,9.10
2011,03,24,04,34,9.10
2011,03,24,04,35,9.10
2011,03,24,04,36,9.10
2011,03,24,04,37,9.10
2011,03,24,04,38,9.10
2011,03,24,04,39,9.10
2011,03,24,04,40,9.10
2011,03,24,04,41,9.10
2011,03,24,04,42,9.10
2011,03,24,04,43,9.10
2011,03,24,04,44,9.10
2011,03,24,04,45,9.10
2011,03,24,04,46,9.10
2011,03,24,04,47,9.10
2011,03,24,04,48,9.10
2011,03,24,04,49,9.10
2011,03,24,04,50,9.10
2011,03,24,04,51,9.10
2011,03,24,04,52,9.20
2011,03,24,04,53,9.20
2011,03,24,04,54,9.20
2011,03,24,04,55,9.20
2011,03,24,04,56,9.30
2011,03,24,04,57,9.40
2011,03,24,04,58,9.40
2011,03,24,04,59,9.50
2011,03,24,05,00,9.50
2011,03,24,05,01,9.50
2011,03,24,05,02,9.50
2011,03,24,05,03,9.50
2011,03,24,05,04,9.50
2011,03,24,05,05,9.50
2011,03,24,05,06,9.60
2011,03,24,05,07,9.60
2011,03,24,05,08,9.60
2011,03,24,05,09,9.60
2011,03,24,05,10,9.60
2011,03,24,05,11,9.60
2011,03,24,05,12,9.50
2011,03,24,05,13,9.50
2011,03,24,05,14,9.50
2011,03,24,05,15,9.50
2011,03,24,05,16,9.50
2011,03,24,05,17,9.40
2011,03,24,05,18,9.40
2011,03,24,05,19,9.40
2011,03,24,05,20,9.40
2011,03,24,05,21,9.30
2011,03,24,05,22,9.30
2011,03,24,05,23,9.30
2011,03,24,05,24,9.30
2011,03,24,05,25,9.20
2011,03,24,05,26,9.20
2011,03,24,05,27,9.20
2011,03,24,05,28,9.20
2011,03,24,05,29,9.20
2011,03,24,05,30,9.20
2011,03,24,05,31,9.20
2011,03,24,05,32,9.20
2011,03,24,05,33,9.20
2011,03,24,05,34,9.20
2011,03,24,05,35,9.20
2011,03,24,05,36,9.20
2011,03,24,05,37,9.20
2011,03,24,05,38,9.20
2011,03,24,05,39,9.20
2011,03,24,05,40,9.20
2011,03,24,05,41,9.10
2011,03,24,05,42,9.10
2011,03,24,05,43,9.10
2011,03,24,05,44,9.10
2011,03,24,05,45,9.10
2011,03,24,05,46,9.10
2011,03,24,05,47,9.00
2011,03,24,05,48,9.00
2011,03,24,05,49,9.00
2011,03,24,05,50,9.00
2011,03,24,05,51,9.00
2011,03,24,05,52,8.90
2011,03,24,05,53,8.90
2011,03,24,05,54,8.90
2011,03,24,05,55,8.80
2011,03,24,05,56,8.80
2011,03,24,05,57,8.80
2011,03,24,05,58,8.70
2011,03,24,05,59,8.70
2011,03,24,06,00,8.70
2011,03,24,06,01,8.70
2011,03,24,06,02,8.70
2011,03,24,06,03,8.70
2011,03,24,06,04,8.70
2011,03,24,06,05,8.70
2011,03,24,06,06,8.60
2011,03,24,06,07,8.60
2011,03,24,06,08,8.60
2011,03,24,06,09,8.60
2011,03,24,06,10,8.50
2011,03,24,06,11,8.50
2011,03,24,06,12,8.50
2011,03,24,06,13,8.50
2011,03,24,06,14,8.40
2011,03,24,06,15,8.40
2011,03,24,06,16,8.40
2011,03,24,06,17,8.30
2011,03,24,06,18,8.30
2011,03,24,06,19,8.20
2011,03,24,06,20,8.20
2011,03,24,06,21,8.20
2011,03,24,06,22,8.10
2011,03,24,06,23,8.10
2011,03,24,06,24,8.10
2011,03,24,06,25,8.10
2011,03,24,06,26,8.10
2011,03,24,06,27,8.10
2011,03,24,06,28,8.00
2011,03,24,06,29,8.00
2011,03,24,06,30,8.00
2011,03,24,06,31,7.90
2011,03,24,06,32,7.90
2011,03,24,06,33,7.80
2011,03,24,06,34,7.90
2011,03,24,06,35,7.90
2011,03,24,06,36,7.90
2011,03,24,06,37,7.90
2011,03,24,06,38,7.90
2011,03,24,06,39,7.90
2011,03,24,06,40,8.00
2011,03,24,06,41,8.00
2011,03,24,06,42,8.00
2011,03,24,06,43,8.00
2011,03,24,06,44,8.00
2011,03,24,06,45,8.00
2011,03,24,06,46,8.00
2011,03,24,06,47,8.00
2011,03,24,06,48,8.10
2011,03,24,06,49,8.10
2011,03,24,06,50,8.20
2011,03,24,06,51,8.20
2011,03,24,06,52,8.20
2011,03,24,06,53,8.20
2011,03,24,06,54,8.20
2011,03,24,06,55,8.20
2011,03,24,06,56,8.20
2011,03,24,06,57,8.20
2011,03,24,06,58,8.20
2011,03,24,06,59,8.20
2011,03,24,07,00,8.20
2011,03,24,07,01,8.20
2011,03,24,07,02,8.30
2011,03,24,07,03,8.30
2011,03,24,07,04,8.30
2011,03,24,07,05,8.40
2011,03,24,07,06,8.40
2011,03,24,07,07,8.50
2011,03,24,07,08,8.50
2011,03,24,07,09,8.60
2011,03,24,07,10,8.60
2011,03,24,07,11,8.70
2011,03,24,07,12,8.70
2011,03,24,07,13,8.70
2011,03,24,07,14,8.70
2011,03,24,07,15,8.70
2011,03,24,07,16,8.70
2011,03,24,07,17,8.70
2011,03,24,07,18,8.70
2011,03,24,07,19,8.60
2011,03,24,07,20,8.60
2011,03,24,07,21,8.60
2011,03,24,07,22,8.60
2011,03,24,07,23,8.50
2011,03,24,07,24,8.50
2011,03,24,07,25,8.50
2011,03,24,07,26,8.40
2011,03,24,07,27,8.40
2011,03,24,07,28,8.30
2011,03,24,07,29,8.30
2011,03,24,07,30,8.20
2011,03,24,07,31,8.20
2011,03,24,07,32,8.30
2011,03,24,07,33,8.30
2011,03,24,07,34,8.30
2011,03,24,07,35,8.20
2011,03,24,07,36,8.20
2011,03,24,07,37,8.20
2011,03,24,07,38,8.20
2011,03,24,07,39,8.20
2011,03,24,07,40,8.20
2011,03,24,07,41,8.20
2011,03,24,07,42,8.20
2011,03,24,07,43,8.20
2011,03,24,07,44,8.20
2011,03,24,07,45,8.20
2011,03,24,07,46,8.20
2011,03,24,07,47,8.30
2011,03,24,07,48,8.30
2011,03,24,07,49,8.40
2011,03,24,07,50,8.40
2011,03,24,07,51,8.50
2011,03,24,07,52,8.60
2011,03,24,07,53,8.60
2011,03,24,07,54,8.60
2011,03,24,07,55,8.60
2011,03,24,07,56,8.70
2011,03,24,07,57,8.70
2011,03,24,07,58,8.70
2011,03,24,07,59,8.80
2011,03,24,08,00,8.80
2011,03,24,08,01,8.80
2011,03,24,08,02,8.80
2011,03,24,08,03,8.90
2011,03,24,08,04,8.90
2011,03,24,08,05,8.90
2011,03,24,08,06,9.00
2011,03,24,08,07,9.00
2011,03,24,08,08,9.10
2011,03,24,08,09,9.10
2011,03,24,08,10,9.20
2011,03,24,08,11,9.20
2011,03,24,08,12,9.30
2011,03,24,08,13,9.30
2011,03,24,08,14,9.40
2011,03,24,08,15,9.40
2011,03,24,08,16,9.50
2011,03,24,08,17,9.60
2011,03,24,08,18,9.60
2011,03,24,08,19,9.70
2011,03,24,08,20,9.70
2011,03,24,08,21,9.70
2011,03,24,08,22,9.80
2011,03,24,08,23,9.80
2011,03,24,08,24,9.90
2011,03,24,08,25,9.90
2011,03,24,08,26,9.90
2011,03,24,08,27,9.90
2011,03,24,08,28,9.90
2011,03,24,08,29,10.10
2011,03,24,08,30,10.10
2011,03,24,08,31,10.10
2011,03,24,08,32,10.10
2011,03,24,08,33,10.10
2011,03,24,08,34,10.10
2011,03,24,08,35,10.10
2011,03,24,08,36,10.10
2011,03,24,08,37,10.10
2011,03,24,08,38,10.10
2011,03,24,08,39,10.20
2011,03,24,08,40,10.20
2011,03,24,08,41,10.20
2011,03,24,08,42,10.30
2011,03,24,08,43,10.40
2011,03,24,08,44,10.40
2011,03,24,08,45,10.40
2011,03,24,08,46,10.50
2011,03,24,08,47,10.60
2011,03,24,08,48,10.60
2011,03,24,08,49,10.60
2011,03,24,08,50,10.60
2011,03,24,08,51,10.70
2011,03,24,08,52,10.70
2011,03,24,08,53,10.80
2011,03,24,08,54,10.80
2011,03,24,08,55,10.90
2011,03,24,08,56,10.90
2011,03,24,08,57,10.90
2011,03,24,08,58,11.00
2011,03,24,08,59,11.10
2011,03,24,09,00,11.10
2011,03,24,09,01,11.10
2011,03,24,09,02,11.10
2011,03,24,09,03,11.10
2011,03,24,09,04,11.10
2011,03,24,09,05,11.10
2011,03,24,09,06,11.10
2011,03,24,09,07,11.10
2011,03,24,09,08,11.10
2011,03,24,09,09,11.20
2011,03,24,09,10,11.20
2011,03,24,09,11,11.20
2011,03,24,09,12,11.30
2011,03,24,09,13,11.30
2011,03,24,09,14,11.30
2011,03,24,09,15,11.40
2011,03,24,09,16,11.40
2011,03,24,09,17,11.40
2011,03,24,09,18,11.40
2011,03,24,09,19,11.30
2011,03,24,09,20,11.30
2011,03,24,09,21,11.30
2011,03,24,09,22,11.30
2011,03,24,09,23,11.30
2011,03,24,09,24,11.20
2011,03,24,09,25,11.20
2011,03,24,09,26,11.20
2011,03,24,09,27,11.20
2011,03,24,09,28,11.10
2011,03,24,09,29,11.10
2011,03,24,09,30,11.10
2011,03,24,09,31,11.10
2011,03,24,09,32,11.10
2011,03,24,09,33,11.10
2011,03,24,09,34,11.10
2011,03,24,09,35,11.10
2011,03,24,09,36,11.10
2011,03,24,09,37,11.10
2011,03,24,09,38,11.10
2011,03,24,09,39,11.10
2011,03,24,09,40,11.10
2011,03,24,09,41,11.20
2011,03,24,09,42,11.20
2011,03,24,09,43,11.20
2011,03,24,09,44,11.30
2011,03,24,09,45,11.40
2011,03,24,09,46,11.40
2011,03,24,09,47,11.40
2011,03,24,09,48,11.50
2011,03,24,09,49,11.60
2011,03,24,09,50,11.60
2011,03,24,09,51,11.60
2011,03,24,09,52,11.70
2011,03,24,09,53,11.70
2011,03,24,09,54,11.70
2011,03,24,09,55,11.70
2011,03,24,09,56,11.70
2011,03,24,09,57,11.60
2011,03,24,09,58,11.60
2011,03,24,09,59,11.60
2011,03,24,10,00,11.60
2011,03,24,10,01,11.60
2011,03,24,10,02,11.60
2011,03,24,10,03,11.60
2011,03,24,10,04,11.60
2011,03,24,10,05,11.60
2011,03,24,10,06,11.60
2011,03,24,10,07,11.60
2011,03,24,10,08,11.60
2011,03,24,10,09,11.60
2011,03,24,10,10,11.70
2011,03,24,10,11,11.70
2011,03,24,10,12,11.70
2011,03,24,10,13,11.80
2011,03,24,10,14,11.80
2011,03,24,10,15,11.80
2011,03,24,10,16,11.90
2011,03,24,10,17,11.90
2011,03,24,10,18,11.90
2011,03,24,10,19,11.90
2011,03,24,10,20,12.00
2011,03,24,10,21,12.00
2011,03,24,10,22,12.00
2011,03,24,10,23,12.10
2011,03,24,10,24,12.10
2011,03,24,10,25,12.10
2011,03,24,10,26,12.10
2011,03,24,10,27,12.10
2011,03,24,10,28,12.10
2011,03,24,10,29,12.20
2011,03,24,10,30,12.20
2011,03,24,10,31,12.20
2011,03,24,10,32,12.10
2011,03,24,10,33,12.00
2011,03,24,10,34,11.90
2011,03,24,10,35,11.80
2011,03,24,10,36,11.80
2011,03,24,10,37,11.90
2011,03,24,10,38,11.90
2011,03,24,10,39,12.00
2011,03,24,10,40,12.00
2011,03,24,10,41,12.10
2011,03,24,10,42,12.10
2011,03,24,10,43,12.10
2011,03,24,10,44,12.10
2011,03,24,10,45,12.00
2011,03,24,10,46,12.00
2011,03,24,10,47,12.00
2011,03,24,10,48,12.00
2011,03,24,10,49,12.00
2011,03,24,10,50,11.90
2011,03,24,10,51,11.80
2011,03,24,10,52,11.80
2011,03,24,10,53,11.70
2011,03,24,10,54,11.70
2011,03,24,10,55,11.60
2011,03,24,10,56,11.70
2011,03,24,10,57,11.70
2011,03,24,10,58,11.70
2011,03,24,10,59,11.70
2011,03,24,11,00,11.80
2011,03,24,11,01,11.80
2011,03,24,11,02,11.80
2011,03,24,11,03,11.80
2011,03,24,11,04,11.90
2011,03,24,11,05,11.90
2011,03,24,11,06,11.90
2011,03,24,11,07,11.80
2011,03,24,11,08,11.80
2011,03,24,11,09,11.80
2011,03,24,11,10,11.70
2011,03,24,11,11,11.70
2011,03,24,11,12,11.60
2011,03,24,11,13,11.60
2011,03,24,11,14,11.60
2011,03,24,11,15,11.60
2011,03,24,11,16,11.60
2011,03,24,11,17,11.70
2011,03,24,11,18,11.70
2011,03,24,11,19,11.70
2011,03,24,11,20,11.60
2011,03,24,11,21,11.60
2011,03,24,11,22,11.60
2011,03,24,11,23,11.60
2011,03,24,11,24,11.60
2011,03,24,11,25,11.50
2011,03,24,11,26,11.40
2011,03,24,11,27,11.40
2011,03,24,11,28,11.40
2011,03,24,11,29,11.40
2011,03,24,11,30,11.30
2011,03,24,11,31,11.30
2011,03,24,11,32,11.30
2011,03,24,11,33,11.30
2011,03,24,11,34,11.20
2011,03,24,11,35,11.20
2011,03,24,11,36,11.20
2011,03,24,11,37,11.20
2011,03,24,11,38,11.20
2011,03,24,11,39,11.20
2011,03,24,11,40,11.20
2011,03,24,11,41,11.20
2011,03,24,11,42,11.20
2011,03,24,11,43,11.20
2011,03,24,11,44,11.20
2011,03,24,11,45,11.20
2011,03,24,11,46,11.10
2011,03,24,11,47,11.10
2011,03,24,11,48,11.20
2011,03,24,11,49,11.20
2011,03,24,11,50,11.20
2011,03,24,11,51,11.20
2011,03,24,11,52,11.20
2011,03,24,11,53,11.20
2011,03,24,11,54,11.20
2011,03,24,11,55,11.20
2011,03,24,11,56,11.20
2011,03,24,11,57,11.20
2011,03,24,11,58,11.20
2011,03,24,11,59,11.10
2011,03,24,12,00,11.10
2011,03,24,12,01,11.10
2011,03,24,12,02,11.10
2011,03,24,12,03,11.10
2011,03,24,12,04,11.20
2011,03,24,12,05,11.20
2011,03,24,12,06,11.20
2011,03,24,12,07,11.20
2011,03,24,12,08,11.20
2011,03,24,12,09,11.20
2011,03,24,12,10,11.20
2011,03,24,12,11,11.20
2011,03,24,12,12,11.30
2011,03,24,12,13,11.30
2011,03,24,12,14,11.30
2011,03,24,12,15,11.40
2011,03,24,12,16,11.40
2011,03,24,12,17,11.40
2011,03,24,12,18,11.40
2011,03,24,12,19,11.40
2011,03,24,12,20,11.40
2011,03,24,12,21,11.40
2011,03,24,12,22,11.40
2011,03,24,12,23,11.40
2011,03,24,12,24,11.40
2011,03,24,12,25,11.50
2011,03,24,12,26,11.60
2011,03,24,12,27,11.60
2011,03,24,12,28,11.60
2011,03,24,12,29,11.50
2011,03,24,12,30,11.50
2011,03,24,12,31,11.60
2011,03,24,12,32,11.50
2011,03,24,12,33,11.60
2011,03,24,12,34,11.60
2011,03,24,12,35,11.60
2011,03,24,22,14,8.20
2011,03,24,22,15,8.20
2011,03,24,22,16,8.20
2011,03,24,22,17,8.20
2011,03,24,22,18,8.20
2011,03,24,22,19,8.20
2011,03,24,22,20,8.20
2011,03,24,22,21,8.20
2011,03,24,22,22,8.20
2011,03,24,22,23,8.20
2011,03,24,22,24,8.20
2011,03,24,22,25,8.10
2011,03,24,22,26,8.10
2011,03,24,22,27,8.10
2011,03,24,22,28,8.10
2011,03,24,22,29,8.10
2011,03,24,22,30,8.10
2011,03,24,22,31,8.10
2011,03,24,22,32,8.10
2011,03,24,22,33,8.10
2011,03,24,22,34,8.10
2011,03,24,22,35,8.10
2011,03,24,22,36,8.10
2011,03,24,22,37,8.00
2011,03,24,22,38,8.00
2011,03,24,22,39,8.10
2011,03,24,22,40,8.10
2011,03,24,22,41,8.00
2011,03,24,22,42,8.00
2011,03,24,22,43,8.00
2011,03,24,22,44,8.00
2011,03,24,22,45,8.00
2011,03,24,22,46,8.00
2011,03,24,22,47,8.00
2011,03,24,22,48,8.00
2011,03,24,22,49,8.00
2011,03,24,22,50,8.00
2011,03,24,22,51,8.00
2011,03,24,22,52,8.00
2011,03,24,22,53,8.00
2011,03,24,22,54,8.00
2011,03,24,22,55,8.00
2011,03,24,22,56,8.00
2011,03,24,22,57,7.90
2011,03,24,22,58,7.90
2011,03,24,22,59,7.90
2011,03,24,23,00,7.90
2011,03,24,23,01,7.90
2011,03,24,23,02,7.90
2011,03,24,23,03,7.90
2011,03,24,23,04,7.90
2011,03,24,23,05,7.90
2011,03,24,23,06,7.90
2011,03,24,23,07,7.90
2011,03,24,23,08,7.90
2011,03,24,23,09,7.90
2011,03,24,23,10,7.90
2011,03,24,23,11,7.90
2011,03,24,23,12,7.90
2011,03,24,23,13,7.90
2011,03,24,23,14,7.90
2011,03,24,23,15,7.90
2011,03,24,23,16,7.90
2011,03,24,23,17,7.90
2011,03,24,23,18,7.90
2011,03,24,23,19,7.90
2011,03,24,23,20,7.90
2011,03,24,23,21,7.90
2011,03,24,23,22,7.90
2011,03,24,23,23,7.90
2011,03,24,23,24,7.90
2011,03,24,23,25,7.90
2011,03,24,23,26,7.90
2011,03,24,23,27,7.80
2011,03,24,23,28,7.80
2011,03,24,23,29,7.80
2011,03,24,23,30,7.80
2011,03,24,23,31,7.80
2011,03,24,23,32,7.80
2011,03,24,23,33,7.80
2011,03,24,23,34,7.80
2011,03,24,23,35,7.80
2011,03,24,23,36,7.70
2011,03,24,23,37,7.70
2011,03,24,23,38,7.60
2011,03,24,23,39,7.60
2011,03,24,23,40,7.60
2011,03,24,23,41,7.50
2011,03,24,23,42,7.50
2011,03,24,23,43,7.50
2011,03,24,23,44,7.40
2011,03,24,23,45,7.40
2011,03,24,23,46,7.40
2011,03,24,23,47,7.30
2011,03,24,23,48,7.30
2011,03,24,23,49,7.30
2011,03,24,23,50,7.30
2011,03,24,23,51,7.30
2011,03,24,23,52,7.20
2011,03,24,23,53,7.20
2011,03,24,23,54,7.20
2011,03,24,23,55,7.10
2011,03,24,23,56,7.10
2011,03,24,23,57,7.10
2011,03,24,23,58,7.10
2011,03,24,23,59,7.10
